TimeCDT,TemperatureF,Dew PointF,Humidity,Sea Level PressureIn,VisibilityMPH,Wind Direction,Wind SpeedMPH,Gust SpeedMPH,PrecipitationIn,Events,Conditions,WindDirDegrees,DateUTC
12:18 AM,60.8,55.4,82,30.02,10.0,ENE,8.1,-,N/A,,Overcast,70,2013-06-18 05:18:00
12:43 AM,59.0,55.4,88,30.03,10.0,ENE,5.8,-,N/A,,Overcast,70,2013-06-18 05:43:00
12:54 AM,59.0,55.9,90,30.04,10.0,East,5.8,-,N/A,,Overcast,80,2013-06-18 05:54:00
1:54 AM,57.9,53.1,84,30.05,10.0,East,6.9,-,N/A,,Overcast,90,2013-06-18 06:54:00
2:54 AM,55.9,51.1,84,30.05,10.0,East,6.9,-,N/A,,Overcast,80,2013-06-18 07:54:00
3:39 AM,53.6,42.8,67,30.06,10.0,NE,8.1,-,N/A,,Overcast,50,2013-06-18 08:39:00
3:54 AM,53.1,44.1,71,30.07,10.0,ENE,8.1,-,N/A,,Overcast,70,2013-06-18 08:54:00
4:54 AM,48.9,42.1,77,30.09,10.0,ENE,3.5,-,N/A,,Partly Cloudy,70,2013-06-18 09:54:00
5:54 AM,48.9,41.0,74,30.11,10.0,ENE,3.5,-,N/A,,Clear,60,2013-06-18 10:54:00
6:54 AM,50.0,41.0,71,30.13,10.0,NE,6.9,-,N/A,,Clear,50,2013-06-18 11:54:00
7:54 AM,53.1,41.0,64,30.14,10.0,East,8.1,-,N/A,,Clear,90,2013-06-18 12:54:00
8:54 AM,57.0,44.1,62,30.14,10.0,ENE,6.9,-,N/A,,Clear,70,2013-06-18 13:54:00
9:54 AM,60.1,46.9,62,30.14,10.0,East,5.8,-,N/A,,Clear,80,2013-06-18 14:54:00
10:54 AM,63.0,46.9,56,30.14,10.0,ESE,8.1,-,N/A,,Clear,110,2013-06-18 15:54:00
11:54 AM,66.0,45.0,47,30.12,10.0,ENE,6.9,-,N/A,,Clear,70,2013-06-18 16:54:00
12:54 PM,66.9,43.0,42,30.12,10.0,East,10.4,18.4,N/A,,Clear,90,2013-06-18 17:54:00
1:54 PM,69.1,43.0,39,30.11,10.0,East,11.5,16.1,N/A,,Clear,100,2013-06-18 18:54:00
2:54 PM,70.0,42.1,36,30.11,10.0,Calm,Calm,-,N/A,,Clear,0,2013-06-18 19:54:00
3:54 PM,71.1,41.0,34,30.11,10.0,Calm,Calm,-,N/A,,Clear,0,2013-06-18 20:54:00
4:54 PM,71.1,42.1,35,30.10,10.0,NE,4.6,-,N/A,,Partly Cloudy,50,2013-06-18 21:54:00
5:54 PM,70.0,43.0,38,30.09,10.0,East,9.2,-,N/A,,Clear,100,2013-06-18 22:54:00
6:54 PM,68.0,42.1,39,30.09,10.0,ESE,6.9,-,N/A,,Clear,110,2013-06-18 23:54:00
7:54 PM,66.0,44.1,45,30.09,10.0,SE,10.4,-,N/A,,Clear,130,2013-06-19 00:54:00
8:54 PM,63.0,45.0,52,30.10,10.0,ESE,8.1,-,N/A,,Clear,120,2013-06-19 01:54:00
9:54 PM,60.1,44.1,55,30.11,10.0,ESE,5.8,-,N/A,,Clear,120,2013-06-19 02:54:00
10:54 PM,57.9,41.0,53,30.11,10.0,Calm,Calm,-,N/A,,Clear,0,2013-06-19 03:54:00
11:54 PM,55.0,44.1,67,30.12,10.0,Calm,Calm,-,N/A,,Clear,0,2013-06-19 04:54:00